| time (UTC) | temp F | wind direction | speed MPH | gust MPH | rain 1hr in | rain 24hr in | rain mn in | humidity % | barometer mb |
| 20260906234512 | 78 | 185 | 1.0 | 5.0 | 0.00 | 0.00 | 0.00 | 33 | 1001.4 |
| 20260906233041 | 78 | 248 | 1.0 | 5.0 | 0.00 | 0.00 | 0.00 | 35 | 1001.5 |
| 20260906231507 | 77 | 215 | 0.0 | 2.0 | 0.00 | 0.00 | 0.00 | 32 | 1001.5 |
| 20260906230040 | 78 | 200 | 0.0 | 2.0 | 0.00 | 0.00 | 0.00 | 34 | 1001.8 |
| 20260906224506 | 78 | 252 | 1.0 | 3.0 | 0.00 | 0.00 | 0.00 | 34 | 1001.9 |
| 20260906223036 | 78 | 111 | 0.0 | 3.0 | 0.00 | 0.00 | 0.00 | 36 | 1001.9 |
| 20260906221502 | 79 | 225 | 1.0 | 6.0 | 0.00 | 0.00 | 0.00 | 31 | 1002.2 |
| 20260906220038 | 79 | 230 | 2.0 | 8.0 | 0.00 | 0.00 | 0.00 | 33 | 1002.2 |
| 20260906214503 | 80 | 158 | 1.0 | 6.0 | 0.00 | 0.00 | 0.00 | 33 | 1002.2 |
| 20260906213032 | 80 | 225 | 1.0 | 7.0 | 0.00 | 0.00 | 0.00 | 34 | 1002.2 |
| 20260906211601 | 81 | 200 | 2.0 | 7.0 | 0.00 | 0.00 | 0.00 | 29 | 1002.3 |
| 20260906210029 | 80 | 165 | 1.0 | 4.0 | 0.00 | 0.00 | 0.00 | 31 | 1002.3 |
| 20260906204603 | 80 | 135 | 2.0 | 7.0 | 0.00 | 0.00 | 0.00 | 31 | 1002.5 |
| 20260906203029 | 81 | 159 | 2.0 | 11.0 | 0.00 | 0.00 | 0.00 | 28 | 1002.7 |
| 20260906201635 | 84 | 222 | 2.0 | 6.0 | 0.00 | 0.00 | 0.00 | 30 | 1002.9 |
| 20260906200027 | 81 | 230 | 1.0 | 4.0 | 0.00 | 0.00 | 0.00 | 31 | 1003.1 |
| 20260906194606 | 83 | 137 | 1.0 | 5.0 | 0.00 | 0.00 | 0.00 | 28 | 1003.3 |
| 20260906193026 | 81 | 189 | 1.0 | 4.0 | 0.00 | 0.00 | 0.00 | 33 | 1003.7 |
| 20260906191608 | 81 | 151 | 1.0 | 6.0 | 0.00 | 0.00 | 0.00 | 28 | 1003.6 |
| 20260906190024 | 80 | 150 | 2.0 | 7.0 | 0.00 | 0.00 | 0.00 | 27 | 1004.1 |
| 20260906184558 | 81 | 271 | 2.0 | 6.0 | 0.00 | 0.00 | 0.00 | 30 | 1004.2 |
| 20260906183027 | 81 | 211 | 2.0 | 6.0 | 0.00 | 0.00 | 0.00 | 36 | 1004.2 |
| 20260906181612 | 80 | 326 | 3.0 | 7.0 | 0.00 | 0.00 | 0.00 | 29 | 1004.4 |
| 20260906180021 | 80 | 182 | 1.0 | 4.0 | 0.00 | 0.00 | 0.00 | 27 | 1004.6 |
| 20260906174554 | 80 | 207 | 1.0 | 6.0 | 0.00 | 0.00 | 0.00 | 29 | 1004.9 |
| 20260906173026 | 79 | 252 | 2.0 | 6.0 | 0.00 | 0.00 | 0.00 | 26 | 1005.1 |
| 20260906171550 | 78 | 178 | 1.0 | 5.0 | 0.00 | 0.00 | 0.00 | 29 | 1005.2 |
| 20260906170023 | 77 | 200 | 1.0 | 3.0 | 0.00 | 0.00 | 0.00 | 34 | 1005.4 |
| 20260906164550 | 76 | 25 | 1.0 | 4.0 | 0.00 | 0.00 | 0.00 | 34 | 1005.5 |
| 20260906163022 | 75 | 107 | 0.0 | 4.0 | 0.00 | 0.00 | 0.00 | 36 | 1005.7 |
| 20260906161547 | 74 | 283 | 0.0 | 4.0 | 0.00 | 0.00 | 0.00 | 37 | 1005.7 |
| 20260906160014 | 73 | 252 | 1.0 | 6.0 | 0.00 | 0.00 | 0.00 | 34 | 1005.9 |
| 20260906154549 | 73 | 309 | 0.0 | 4.0 | 0.00 | 0.00 | 0.00 | 37 | 1006.1 |
| 20260906153014 | 72 | 321 | 0.0 | 4.0 | 0.00 | 0.00 | 0.00 | 36 | 1006.0 |
| 20260906151539 | 72 | 257 | 1.0 | 3.0 | 0.00 | 0.00 | 0.00 | 34 | 1006.1 |
| 20260906150007 | 72 | 86 | 2.0 | 8.0 | 0.00 | 0.00 | 0.00 | 35 | 1005.9 |
| 20260906144533 | 72 | 117 | 0.0 | 9.0 | 0.00 | 0.00 | 0.00 | 31 | 1005.8 |
| 20260906143006 | 72 | 98 | 3.0 | 5.0 | 0.00 | 0.00 | 0.00 | 32 | 1005.7 |
| 20260906141533 | 71 | 355 | 1.0 | 3.0 | 0.00 | 0.00 | 0.00 | 31 | 1005.6 |
| 20260906140001 | 68 | 300 | 1.0 | 3.0 | 0.00 | 0.00 | 0.00 | 35 | 1005.6 |
| 20260906134531 | 69 | 321 | 0.0 | 2.0 | 0.00 | 0.00 | 0.00 | 33 | 1005.4 |
| 20260906133113 | 70 | 88 | 1.0 | 3.0 | 0.00 | 0.00 | 0.00 | 31 | 1005.1 |
| 20260906131530 | 70 | 19 | 2.0 | 4.0 | 0.00 | 0.00 | 0.00 | 30 | 1005.0 |
| 20260906130112 | 70 | 64 | 1.0 | 6.0 | 0.00 | 0.00 | 0.00 | 30 | 1005.0 |
| 20260906124529 | 70 | 73 | 1.0 | 5.0 | 0.00 | 0.00 | 0.00 | 30 | 1005.1 |
| 20260906123100 | 71 | 276 | 1.0 | 10.0 | 0.00 | 0.00 | 0.00 | 29 | 1005.1 |
| 20260906121530 | 70 | 271 | 1.0 | 4.0 | 0.00 | 0.00 | 0.00 | 29 | 1005.0 |
| 20260906120058 | 70 | 35 | 2.0 | 7.0 | 0.00 | 0.00 | 0.00 | 27 | 1005.0 |
| 20260906114539 | 71 | 86 | 2.0 | 6.0 | 0.00 | 0.00 | 0.00 | 29 | 1005.0 |
| 20260906113107 | 71 | 77 | 1.0 | 3.0 | 0.00 | 0.00 | 0.00 | 27 | 1005.0 |
| 20260906111529 | 71 | 98 | 1.0 | 7.0 | 0.00 | 0.00 | 0.00 | 26 | 1005.0 |
| 20260906110056 | 71 | 106 | 0.0 | 3.0 | 0.00 | 0.00 | 0.00 | 26 | 1005.0 |
| 20260906104524 | 72 | 28 | 1.0 | 5.0 | 0.00 | 0.00 | 0.00 | 25 | 1004.9 |
| 20260906103055 | 71 | 31 | 0.0 | 5.0 | 0.00 | 0.00 | 0.00 | 24 | 1005.0 |
| 20260906101523 | 72 | 117 | 0.0 | 8.0 | 0.00 | 0.00 | 0.00 | 25 | 1004.9 |
| 20260906100053 | 72 | 281 | 1.0 | 8.0 | 0.00 | 0.00 | 0.00 | 25 | 1004.8 |
| 20260906094521 | 72 | 87 | 2.0 | 5.0 | 0.00 | 0.00 | 0.00 | 24 | 1004.6 |
| 20260906093052 | 73 | 142 | 1.0 | 5.0 | 0.00 | 0.00 | 0.00 | 24 | 1004.6 |
| 20260906091528 | 72 | 246 | 1.0 | 5.0 | 0.00 | 0.00 | 0.00 | 26 | 1004.7 |
| 20260906090052 | 73 | 355 | 1.0 | 3.0 | 0.00 | 0.00 | 0.00 | 24 | 1004.6 |
| 20260906084524 | 73 | 96 | 1.0 | 3.0 | 0.00 | 0.00 | 0.00 | 24 | 1004.4 |
| 20260906083051 | 73 | 171 | 2.0 | 10.0 | 0.00 | 0.00 | 0.00 | 23 | 1004.3 |
| 20260906081523 | 73 | 148 | 2.0 | 9.0 | 0.00 | 0.00 | 0.00 | 24 | 1004.4 |
| 20260906080048 | 73 | 82 | 1.0 | 4.0 | 0.00 | 0.00 | 0.00 | 23 | 1004.5 |
| 20260906074517 | 73 | 69 | 1.0 | 3.0 | 0.00 | 0.00 | 0.00 | 22 | 1004.6 |
| 20260906073048 | 74 | 84 | 1.0 | 5.0 | 0.00 | 0.00 | 0.00 | 21 | 1004.6 |
| 20260906071516 | 74 | 288 | 3.0 | 8.0 | 0.00 | 0.00 | 0.00 | 20 | 1004.7 |
| 20260906070047 | 75 | 51 | 1.0 | 5.0 | 0.00 | 0.00 | 0.00 | 20 | 1004.6 |
| 20260906064524 | 74 | 83 | 1.0 | 6.0 | 0.00 | 0.00 | 0.00 | 21 | 1004.6 |
| 20260906063046 | 74 | 47 | 1.0 | 4.0 | 0.00 | 0.00 | 0.00 | 20 | 1004.5 |
| 20260906061516 | 75 | 51 | 1.0 | 7.0 | 0.00 | 0.00 | 0.00 | 20 | 1004.3 |
| 20260906060106 | 76 | 78 | 0.0 | 6.0 | 0.00 | 0.00 | 0.00 | 18 | 1004.2 |
| 20260906054513 | 75 | 57 | 2.0 | 6.0 | 0.00 | 0.00 | 0.00 | 19 | 1004.1 |
| 20260906053044 | 76 | 65 | 0.0 | 5.0 | 0.00 | 0.00 | 0.00 | 19 | 1004.2 |
| 20260906051517 | 76 | 68 | 0.0 | 3.0 | 0.00 | 0.00 | 0.00 | 19 | 1004.0 |
| 20260906050041 | 76 | 90 | 1.0 | 6.0 | 0.00 | 0.00 | 0.00 | 19 | 1004.0 |
| 20260906044509 | 76 | 92 | 0.0 | 5.0 | 0.00 | 0.00 | 0.00 | 19 | 1004.0 |
| 20260906043041 | 75 | 39 | 1.0 | 5.0 | 0.00 | 0.00 | 0.00 | 20 | 1003.9 |
| 20260906041509 | 76 | 235 | 2.0 | 8.0 | 0.00 | 0.00 | 0.00 | 20 | 1003.9 |
| 20260906040041 | 76 | 37 | 0.0 | 4.0 | 0.00 | 0.00 | 0.00 | 21 | 1003.8 |
| 20260906034505 | 76 | 284 | 2.0 | 8.0 | 0.00 | 0.00 | 0.00 | 20 | 1003.7 |
| 20260906033036 | 76 | 34 | 1.0 | 5.0 | 0.00 | 0.00 | 0.00 | 21 | 1003.6 |
| 20260906031503 | 75 | 355 | 0.0 | 3.0 | 0.00 | 0.00 | 0.00 | 22 | 1003.4 |
| 20260906030037 | 76 | 19 | 1.0 | 4.0 | 0.00 | 0.00 | 0.00 | 21 | 1003.3 |
| 20260906024502 | 76 | 308 | 1.0 | 2.0 | 0.00 | 0.00 | 0.00 | 21 | 1003.0 |
| 20260906023042 | 76 | 5 | 0.0 | 4.0 | 0.00 | 0.00 | 0.00 | 22 | 1002.8 |
| 20260906021502 | 75 | 360 | 0.0 | 2.0 | 0.00 | 0.00 | 0.00 | 23 | 1002.7 |
| 20260906020042 | 76 | 360 | 1.0 | 2.0 | 0.00 | 0.00 | 0.00 | 22 | 1002.7 |
| 20260906014606 | 77 | 328 | 0.0 | 2.0 | 0.00 | 0.00 | 0.00 | 23 | 1002.9 |
| 20260906013028 | 80 | 307 | 0.0 | 3.0 | 0.00 | 0.00 | 0.00 | 18 | 1002.9 |
| 20260906011605 | 79 | 210 | 0.0 | 3.0 | 0.00 | 0.00 | 0.00 | 19 | 1003.1 |
| 20260906010026 | 82 | 279 | 0.0 | 4.0 | 0.00 | 0.00 | 0.00 | 19 | 1003.2 |
| 20260906004600 | 82 | 313 | 0.0 | 2.0 | 0.00 | 0.00 | 0.00 | 19 | 1003.2 |
| 20260906003025 | 83 | 275 | 0.0 | 4.0 | 0.00 | 0.00 | 0.00 | 17 | 1003.3 |
| 20260906001555 | 83 | 323 | 1.0 | 5.0 | 0.00 | 0.00 | 0.00 | 17 | 1003.3 |
| 20260906000024 | 83 | 292 | 2.0 | 6.0 | 0.00 | 0.00 | 0.00 | 18 | 1003.4 |